Simultaneous Nadir Overpasses (SNOs) Predictions

Prediction of SNOs between GOES-15 and METOP-A Satellite Orbit:

Table of predicted SNOs for the next 14.0 days since TLE Epoch: 2/7/2014
Index Date Time (GOES-15) GOES-15 Lat,Lon METOP-A Lat,Lon Distance(km) Time Diff (sec)
1 02/08/2014 18:27:58 0.05,-135.42 -0.06,-135.08 39.51 80
2 02/10/2014 06:49:38 -0.06,-135.39 -0.99,-139.68 487.92 80
3 02/11/2014 06:26:19 -0.05,-135.39 0.10,-134.68 80.68 80
4 02/12/2014 18:47:50 0.06,-135.42 0.93,-139.24 436.22 80
5 02/13/2014 18:24:32 0.06,-135.41 -0.23,-134.26 132.26 80
6 02/15/2014 06:46:12 -0.06,-135.38 -0.83,-138.85 395.91 80
7 02/16/2014 06:22:53 -0.06,-135.37 0.27,-133.86 172.20 80
8 02/17/2014 18:44:24 0.07,-135.39 0.76,-138.42 345.69 80
9 02/18/2014 18:21:04 0.06,-135.38 -0.34,-133.42 222.10 80
10 02/20/2014 06:42:46 -0.07,-135.33 -0.65,-138.03 307.37 80
11 02/21/2014 06:19:26 -0.06,-135.32 0.45,-133.04 259.77 80




NCC Satellite Simultaneous Nadir Overpasses (SNOs) Prediction Service
